Location: ?ernice
(48.8383°N, 14.3803°E)
Time: 17:33:00
(UTC+00:00)

Cosmos 2322 Rocket - Pass Details

Date: 23 May 2024
Orbit: 832 x 850 km, 71.0° (Epoch: 13 June)

Event Time Altitude Azimuth Distance (km) Brightness Sun altitude
Rises 00:51:42 0° 332° (NNW) 3,401 5.9 -16.1°
Reaches altitude 10° 00:54:10 10° 334° (NNW) 2,465 5.1 -15.9°
Maximum altitude 00:59:50 75° 60° (ENE) 875 2.4 -15.5°
Drops below altitude 10° 01:05:29 10° 147° (SSE) 2,462 4.4 -15.0°
Sets 01:07:56 0° 149° (SSE) 3,395 5.1 -14.8°
